Location: Hamburg
(53.5554°N, 9.9941°E)
Time: 04:37:50
(UTC+02:00)

ISS - Pass Details

Date: 14 May 2021
Orbit: 417 x 422 km, 51.6° (Epoch: 15 June)

Event Time Altitude Azimuth Distance (km) Brightness Sun altitude
Rises 22:49:02 0° 213° (SSW) 2,356 -0.2 -11.0°
Reaches altitude 10° 22:51:30 10° 195° (SSW) 1,497 -1.3 -11.2°
Maximum altitude 22:53:59 19° 147° (SSE) 1,057 -2.4 -11.4°
Enters shadow 22:54:58 17° 124° (ESE) 1,138 -2.1 -11.5°
Exits shadow 22:56:53 - 95° (E) 1,629 -1.1 -11.6°
Sets 22:58:58 0° 82° (E) 2,375 -0.2 -11.8°
